728  
ASUS42 KTBW 202118  
RWRFL  
FLORIDA REGIONAL WEATHER ROUNDUP  
NATIONAL WEATHER SERVICE TAMPA BAY RUSKIN FL  
400 PM EST SUN JAN 20 2019  
 
NOTE: "FAIR" INDICATES FEW OR NO CLOUDS BELOW 12,000 FEET WITH NO  
SIGNIFICANT WEATHER AND/OR S TO VISIBILITY
.  
 
FLZ001>010-012>015-112-114-115-202200-  
PANHANDLE FLORIDA  
 
CITY SKY/WX TMP DP RH WIND PRES REMARKS
 
PENSACOLA FAIR 45 30 55 NW16G26 30.16R WCI 38  
PENSACOLA NAS FAIR 46 31 55 NW13G22 30.16R WCI 40  
CRESTVIEW FAIR 44 28 53 N12 30.15R WCI 38  
DUKE FIELD FAIR 43 28 54 N14G24 30.12R WCI 36  
VALPARAISO FAIR 46 29 53 N17 30.12R WCI 38  
MARY ESTHER SUNNY 45 30 55 N14G23 30.12R WCI 38  
PANAMA CITY FAIR 45 32 60 NW13 30.09S WCI 39  
TYNDALL AFB FAIR 46 32 58 NW10G18 30.10R WCI 41  
APALACHICOLA FAIR 48 31 51 NW15G21 30.07S WCI 42  
 
STATION/POSITION SKY/WX TEMP WIND PRES WAVE SWELL
 
AIR SEA DIR/SP/G HT/PER HT/PER  
(F) (DEG/KT/KT) (MB) (FT/S) (FT/S)  
30.1N 87.6W 45 320/ 17/ 23 1022.3  
29.2N 88.2W 330/ 16/ 21 1023.1  
PANAMA CITY BEAC 44 62 330/ 12/ 16 1019.8R  
TOWER C 47 330/ 16/ 20 1017.9F  
 

 
FLZ011-016>038-118-127-128-134-139-239-202200-  
NORTH FLORIDA  
 
CITY SKY/WX TMP DP RH WIND PRES REMARKS
 
MARIANNA FAIR 44 30 57 NW15G23 30.09R WCI 37  
TALLAHASSEE FAIR 45 32 60 NW15 30.06R WCI 38  
PERRY FAIR 49 32 52 NW13G22 30.03R WCI 43  
LIVE OAK MOSUNNY 46 32 57 W12G21 30.00R WCI 41  
CROSS CITY FAIR 50 34 54 NW15 30.02R WCI 44  
LAKE CITY FAIR 46 32 57 W18G24 29.98R WCI 39  
GAINESVILLE FAIR 51 35 54 W12G22 29.99R  
WILLISTON N/A N/A N/A N/A MISG N/A  
PALATKA FAIR 48 36 61 NW9G22 29.95R WCI 44  
MAYPORT NAS FAIR 50 36 58 W15G26 29.91R WCI 45  
JACKSONVILLE FAIR 50 32 50 W20G31 29.92R WCI 44  
JAX NAS FAIR 51 34 52 W16G25 29.94R  
JAX CECIL SUNNY 52 34 50 W17 29.93S  
FERNANDINA BEA FAIR 50 34 53 W28G33 29.92R WCI 42  
ST AUGUSTINE FAIR 48 35 60 W17 29.94R WCI 42  
 
STATION/POSITION SKY/WX TEMP WIND PRES WAVE SWELL
 
AIR SEA DIR/SP/G HT/PER HT/PER  
(F) (DEG/KT/KT) (MB) (FT/S) (FT/S)  
SHELL POINT NOT AVBL  
KEATON BEACH 47 300/ 12/ 17 1017.0R  
CEDAR KEY 47 320/ 12/ 17 1016.7R  
FERNANDINA 50 58 290/ 17/ 23 1013.9R  
30.7N 81.3W 59 N/A 3/ 4  
MAYPORT 49 60 280/ 17/ 23 1013.2R  
31.4N 80.9W 49 57 290/ 23/ 27 1011.1R 5/ 5  
ST AUGUSTINE 48 60 280/ 11/ 16 1013.6R  
 

 
FLZ040-043>046-052-053-057-058-063-144-202200-  
INTERIOR CENTRAL FLORIDA  
 
CITY SKY/WX TMP DP RH WIND PRES REMARKS
 
OCALA FAIR 51 37 58 NW14 29.98R  
LEESBURG FAIR 50 40 68 W21G29 29.98R WCI 43  
SANFORD PTSUNNY 54 43 66 W17G24 29.93R  
ORLANDO EXEC PTSUNNY 55 43 63 W20G29 29.93R  
ORLANDO INTL PTSUNNY 56 44 64 W20G25 29.95R  
KISSIMMEE FAIR 57 46 66 W17 29.95R  
WINTER HAVEN PTSUNNY 58 45 62 NW17G25 29.98R  
LAKELAND PTSUNNY 55 43 62 W18G28 29.99R  
BARTOW MOSUNNY 57 43 58 W16G23 29.96R  
SEBRING FAIR 64 46 53 W21G29 29.97R  
OKEECHOBEE FAIR 64 46 52 W18G28 29.94R  
 

 
FLZ041-047-054-059-064-141-147-202200-  
EAST CENTRAL FLORIDA  
 
CITY SKY/WX TMP DP RH WIND PRES REMARKS
 
ORMOND BEACH MOSUNNY 54 41 62 W16G26 29.92R  
DAYTONA BEACH FAIR 56 44 64 W16G26 29.91R  
DELAND FAIR 55 43 62 W13 29.92R  
NEW SMYRNA BEA MOSUNNY 57 43 58 W20G31 29.92R  
JFK SPACE CTR FAIR 61 47 59 NW20G25 29.90R  
TITUSVILLE MOSUNNY 63 45 51 W17G29 29.91R  
CAPE CANAVERAL FAIR 62 45 53 W21 29.89R  
PATRICK AFB FAIR 64 48 57 W25G32 29.89R  
MELBOURNE FAIR 64 46 52 W22G36 29.90R  
VERO BEACH FAIR 66 45 46 W22G30 29.91R  
FT PIERCE FAIR 66 46 48 W26G40 29.91R  
STUART MOSUNNY 70 46 43 W29G36 29.93R  
 
STATION/POSITION SKY/WX TEMP WIND PRES WAVE SWELL
 
AIR SEA DIR/SP/G HT/PER HT/PER  
(F) (DEG/KT/KT) (MB) (FT/S) (FT/S)  
28.5N 80.2W 62 270/ 23/ 31 1012.2R 7/ 6  
28.9N 78.5W 67 76 270/ 27/ 37 1010.3R  
TRIDENT PIER 61 67 260/ 16/ 23 1013.6R  
28.4N 80.5W 67 N/A 2/ 3  
27.5N 80.2W 75 N/A 4/ 5  
 

 
FLZ050-056-061-142-242-148-248-149-249-151-251-155-255-  
160-260-202200-  
WEST CENTRAL FLORIDA  
 
CITY SKY/WX TMP DP RH WIND PRES REMARKS
 
CRYSTAL RIVER CLOUDY 48 39 71 NW12G22 30.01S WCI 43  
INVERNESS CLOUDY 46 43 87 W3 30.01R  
BROOKSVILLE NOT AVBL  
CLEARWATER AIR CLOUDY 52 43 71 NW15G23 30.02S  
ST PETE CLEARW CLOUDY 53 45 74 NW16G28 30.03R  
TAMPA INTL CLOUDY 53 44 71 NW16G24 30.03R  
TAMPA EXEC CLOUDY 54 43 66 NW13G20 30.03R  
PLANT CITY CLOUDY 55 45 67 W14G24 30.02R  
MACDILL AFB CLOUDY 53 44 71 NW10G22 30.02R  
PETER O KNIGHT CLOUDY 54 46 76 NW9G20 30.03R  
ST PETERSBURG CLOUDY 54 46 74 NW16G28 30.00R  
SARASOTA CLOUDY 59 47 64 NW21G29 30.00R  
VENICE PTSUNNY 61 50 67 NW28 30.02R  
 
STATION/POSITION SKY/WX TEMP WIND PRES WAVE SWELL
 
AIR SEA DIR/SP/G HT/PER HT/PER  
(F) (DEG/KT/KT) (MB) (FT/S) (FT/S)  
27.3N 84.2W 71 N/A 11/ 9 3/11  
CLEARWATER BEACH 53 63 300/ 22/ 26 1017.1R  
MIDDLE TAMPA BAY 55 330/ 23/ 28 1016.7R  
VENICE 59 64 320/ 26/ 28 1016.3R  
 

 
FLZ066-069-070-075>078-162-262-165-265-202200-  
SOUTHWEST FLORIDA AND KEYS  
 
CITY SKY/WX TMP DP RH WIND PRES REMARKS
 
PUNTA GORDA PTSUNNY 63 47 55 NW25G31 30.01R  
FT MYERS FAIR 63 50 62 NW22G30 29.99R  
SOUTHWEST INTL FAIR 63 49 60 NW16G30 30.00R  
NAPLES PTSUNNY 66 51 58 NW25G33 30.01R  
MARCO ISLAND FAIR 65 53 65 NW23G33 30.02R  
IMMOKALEE MOSUNNY 66 48 52 W16G25 29.98R  
MARATHON FAIR 72 56 57 NW20G30 30.01R  
KEY WEST NAS PTSUNNY 70 56 61 NW18G28 30.03R  
KEY WEST INTL FAIR 71 59 65 NW21G29 30.03R  
 
STATION/POSITION SKY/WX TEMP WIND PRES WAVE SWELL
 
AIR SEA DIR/SP/G HT/PER HT/PER  
(F) (DEG/KT/KT) (MB) (FT/S) (FT/S)  
NAPLES 64 67 250/ 24/ 27 1016.0R  
26.0N 85.6W 64 74 320/ 19/ 25 1018.6  
DRY TORTUGAS 68 320/ 23/ 27 1017.5R  
SAND KEY 69 1017.2R  
SOMBRERO KEY 68 1015.9R  
LONG KEY 67 70 320/ 24/ 29 1015.7R  
MOLASSES REEF 68 75 320/ 26/ 28 1015.4R  
 

 
FLZ067-068-071>074-168-172>174-202200-  
SOUTHEAST FLORIDA  
 
CITY SKY/WX TMP DP RH WIND PRES REMARKS
 
W PALM BEACH PTSUNNY 68 51 54 W24G30 29.93R  
BOCA RATON MOSUNNY 70 50 49 W20G37 29.93R  
FT LAUDER-EXEC FAIR 71 52 50 W18G29 29.94R  
FT LAUDERDALE FAIR 71 53 52 W22G28 29.93R  
POMPANO BEACH FAIR 72 51 47 W20G30 29.93R  
PEMBROKE PINES FAIR 71 50 47 W24G31 29.96R  
OPA LOCKA FAIR 72 51 47 NW21 29.95R  
MIAMI PTSUNNY 71 52 50 W15G23 29.96R  
WEST KENDALL FAIR 71 52 50 NW21 29.96R  
HOMESTEAD FAIR 71 53 53 W22G31 29.95R  
 
STATION/POSITION SKY/WX TEMP WIND PRES WAVE SWELL
 
AIR SEA DIR/SP/G HT/PER HT/PER  
(F) (DEG/KT/KT) (MB) (FT/S) (FT/S)  
VIRGINIA KEY 71 72 260/ 12/ 21 1013.8R  
LAKE WORTH 69 74 290/ 15/ 25 1014.3R  
FOWEY ROCKS 69 73 280/ 22/ 24 1014.9R  
SETTLEMENT POINT 71 270/ 27/ 30 1013.1R  
 

 
 
 
 
CLICK HERE TO GO TO PREVIOUS BULLETINS.

The Nexlab FL Page Main Text Page